PY4QS Weather Reports


Display with metric or nautical units.
time (UTC)temp
F
wind
direction
speed
MPH
gust
MPH
rain 1hr
in
rain 24hr
in
rain mn
in
humidity
%
barometer
mb
20260504173737 76 0 0.0 0.0 0.00 0.00 0.00 53 1022.7
20260504173233 76 0 0.0 0.0 0.00 0.00 0.00 52 1022.7
20260504172726 76 0 0.0 0.0 0.00 0.00 0.00 52 1022.7
20260504172222 78 0 0.0 0.0 0.00 0.00 0.00 51 1022.7
20260504171717 78 0 0.0 0.0 0.00 0.00 0.00 51 1022.8
20260504171213 77 0 0.0 0.0 0.00 0.00 0.00 51 1023.0
20260504170707 77 0 0.0 0.0 0.00 0.00 0.00 51 1022.9
20260504170200 77 0 0.0 0.0 0.00 0.00 0.00 51 1022.9
20260504150442 75 0 0.0 0.0 0.00 0.00 0.00 51 1024.0
20260504140834 75 0 0.0 0.0 0.00 0.00 0.00 51 1024.8
20260504130718 72 0 0.0 0.0 0.00 0.00 0.00 56 1025.3
20260504130211 72 0 0.0 0.0 0.00 0.00 0.00 57 1025.4
20260504100341 61 0 0.0 0.0 0.00 0.00 0.00 72 1023.9
20260504081640 58 0 0.0 0.0 0.00 0.00 0.00 79 1023.4
20260504081134 58 0 0.0 0.0 0.00 0.00 0.00 79 1023.4
20260504080124 57 0 0.0 0.0 0.00 0.00 0.00 80 1023.4
20260504050313 60 0 0.0 0.0 0.00 0.00 0.00 75 1023.4
20260504045807 60 0 0.0 0.0 0.00 0.00 0.00 74 1023.4
20260504045301 60 0 0.0 0.0 0.00 0.00 0.00 74 1023.4
20260504044756 60 0 0.0 0.0 0.00 0.00 0.00 74 1023.5
20260504044251 60 0 0.0 0.0 0.00 0.00 0.00 74 1023.6
20260504043745 60 0 0.0 0.0 0.00 0.00 0.00 74 1023.6
20260504043239 60 0 0.0 0.0 0.00 0.00 0.00 74 1023.6
20260504042733 60 0 0.0 0.0 0.00 0.00 0.00 73 1023.7
20260504042229 60 0 0.0 0.0 0.00 0.00 0.00 73 1023.7
20260504041214 61 0 0.0 0.0 0.00 0.00 0.00 72 1023.7
20260504040708 61 0 0.0 0.0 0.00 0.00 0.00 72 1023.8
20260504040200 61 0 0.0 0.0 0.00 0.00 0.00 72 1023.9
20260504035654 61 0 0.0 0.0 0.00 0.00 0.00 72 1023.9
20260504035149 61 0 0.0 0.0 0.00 0.00 0.00 72 1023.9
20260504034642 61 0 0.0 0.0 0.00 0.00 0.00 72 1024.0
20260504034135 61 0 0.0 0.0 0.00 0.00 0.00 72 1024.0
20260504033631 61 0 0.0 0.0 0.00 0.00 0.00 71 1023.9
20260504033126 61 0 0.0 0.0 0.00 0.00 0.00 71 1023.9
20260504032620 61 0 0.0 0.0 0.00 0.00 0.00 71 1024.0
20260504032113 61 0 0.0 0.0 0.00 0.00 0.00 71 1024.0
20260504031100 61 0 0.0 0.0 0.00 0.00 0.00 71 1024.1
20260504030554 61 0 0.0 0.0 0.00 0.00 0.00 70 1024.1
20260504030047 61 0 0.0 0.0 0.00 0.00 0.00 71 1024.2
20260504025539 61 0 0.0 0.0 0.00 0.00 0.00 71 1024.2
20260504025032 61 0 0.0 0.0 0.00 0.00 0.00 70 1024.3
20260504024020 62 0 0.0 0.0 0.00 0.00 0.00 70 1024.3
20260504021952 61 0 0.0 0.0 0.00 0.00 0.00 71 1024.3
20260504021447 62 0 0.0 0.0 0.00 0.00 0.00 70 1024.4
20260504020941 62 0 0.0 0.0 0.00 0.00 0.00 70 1024.3
20260504020435 62 0 0.0 0.0 0.00 0.00 0.00 70 1024.3
20260504015928 62 0 0.0 0.0 0.00 0.00 0.00 70 1024.3
20260504014916 62 0 0.0 0.0 0.00 0.00 0.00 70 1024.3
20260504014410 62 0 0.0 0.0 0.00 0.00 0.00 70 1024.3
20260504013904 62 0 0.0 0.0 0.00 0.00 0.00 69 1024.3
20260504012848 62 0 0.0 0.0 0.00 0.00 0.00 69 1024.4
20260504012341 62 0 0.0 0.0 0.00 0.00 0.00 69 1024.4
20260504011835 62 0 0.0 0.0 0.00 0.00 0.00 69 1024.5
20260504011328 62 0 0.0 0.0 0.00 0.00 0.00 69 1024.5
20260504010821 62 0 0.0 0.0 0.00 0.00 0.00 69 1024.5
20260504010314 62 0 0.0 0.0 0.00 0.00 0.00 68 1024.5
20260504005808 63 0 0.0 0.0 0.00 0.00 0.00 68 1024.6
20260504005304 63 0 0.0 0.0 0.00 0.00 0.00 68 1024.6
20260504004758 62 0 0.0 0.0 0.00 0.00 0.00 68 1024.6
20260504004252 63 0 0.0 0.0 0.00 0.00 0.00 68 1024.6
20260504003746 63 0 0.0 0.0 0.00 0.00 0.00 68 1024.4
20260504002734 63 0 0.0 0.0 0.00 0.00 0.00 68 1024.5
20260504002229 63 0 0.0 0.0 0.00 0.00 0.00 68 1024.5
20260504001725 63 0 0.0 0.0 0.00 0.00 0.00 67 1024.6
20260504001220 63 0 0.0 0.0 0.00 0.00 0.00 67 1024.6
20260504000206 63 0 0.0 0.0 0.00 0.00 0.00 67 1024.6
20260503235152 63 0 0.0 0.0 0.00 0.00 0.00 67 1024.5
20260503234648 63 0 0.0 0.0 0.00 0.00 0.00 67 1024.5
20260503233637 63 0 0.0 0.0 0.00 0.00 0.00 67 1024.5
20260503233130 63 0 0.0 0.0 0.00 0.00 0.00 68 1024.5
20260503232626 63 0 0.0 0.0 0.00 0.00 0.00 67 1024.4
20260503232120 63 0 0.0 0.0 0.00 0.00 0.00 67 1024.4
20260503231107 63 0 0.0 0.0 0.00 0.00 0.00 67 1024.3
20260503230600 63 0 0.0 0.0 0.00 0.00 0.00 68 1024.2
20260503230054 63 0 0.0 0.0 0.00 0.00 0.00 68 1024.3
20260503225548 63 0 0.0 0.0 0.00 0.00 0.00 69 1024.2
20260503224538 63 0 0.0 0.0 0.00 0.00 0.00 69 1024.1
20260503224032 64 0 0.0 0.0 0.00 0.00 0.00 68 1024.1
20260503223526 64 0 0.0 0.0 0.00 0.00 0.00 68 1024.0
20260503223021 64 0 0.0 0.0 0.00 0.00 0.00 68 1024.0
20260503222007 64 0 0.0 0.0 0.00 0.00 0.00 68 1023.9
20260503221503 64 0 0.0 0.0 0.00 0.00 0.00 68 1023.8
20260503220959 64 0 0.0 0.0 0.00 0.00 0.00 68 1023.7
20260503220453 64 0 0.0 0.0 0.00 0.00 0.00 67 1023.7
20260503215947 64 0 0.0 0.0 0.00 0.00 0.00 67 1023.8
20260503215440 64 0 0.0 0.0 0.00 0.00 0.00 67 1023.7
20260503214936 65 0 0.0 0.0 0.00 0.00 0.00 67 1023.6
20260503214432 65 0 0.0 0.0 0.00 0.00 0.00 67 1023.7
20260503213928 65 0 0.0 0.0 0.00 0.00 0.00 67 1023.6
20260503213421 65 0 0.0 0.0 0.00 0.00 0.00 67 1023.6
20260503212913 65 0 0.0 0.0 0.00 0.00 0.00 67 1023.5
20260503212831 65 0 0.0 0.0 0.00 0.00 0.00 67 1023.5
20260503212720 65 0 0.0 0.0 0.00 0.00 0.00 67 1023.5
20260503212223 65 0 0.0 0.0 0.00 0.00 0.00 66 1023.5
20260503211210 66 0 0.0 0.0 0.00 0.00 0.00 66 1023.4
20260503210703 66 0 0.0 0.0 0.00 0.00 0.00 66 1023.4
20260503205647 66 0 0.0 0.0 0.00 0.00 0.00 65 1023.4
20260503205142 66 0 0.0 0.0 0.00 0.00 0.00 65 1023.4
20260503204126 66 0 0.0 0.0 0.00 0.00 0.00 66 1023.4
20260503203620 66 0 0.0 0.0 0.00 0.00 0.00 64 1023.3
20260503203332 65 0 0.0 0.0 0.00 0.00 0.00 65 1023.3
20260503203230 66 0 0.0 0.0 0.00 0.00 0.00 64 1023.3
20260503202724 66 0 0.0 0.0 0.00 0.00 0.00 64 1023.3
20260503202218 66 0 0.0 0.0 0.00 0.00 0.00 63 1023.3
20260503201709 67 0 0.0 0.0 0.00 0.00 0.00 62 1023.3
20260503200321 73 0 0.0 0.0 0.00 0.00 0.00 52 1023.0
20260503195816 74 0 0.0 0.0 0.00 0.00 0.00 55 1022.9
20260503195244 73 0 0.0 0.0 0.00 0.00 0.00 55 1022.9
20260503194740 73 0 0.0 0.0 0.00 0.00 0.00 56 1022.8
20260503194422 72 0 0.0 0.0 0.00 0.00 0.00 57 1022.8
20260503193919 71 0 0.0 0.0 0.00 0.00 0.00 59 1022.7
20260503193726 70 0 0.0 0.0 0.00 0.00 0.00 60 1022.7
20260503193221 68 0 0.0 0.0 0.00 0.00 0.00 62 1022.8
20260503192212 69 0 0.0 0.0 0.00 0.00 0.00 60 1022.7
20260503191708 68 0 0.0 0.0 0.00 0.00 0.00 61 1022.7